FENGYUN 1C DEB, 35156

Orbit data source: Space-Track

FENGYUN 1C DEB, 35156 is space debris in SSO originally from a launch on Mon, 10 May 1999 UTC launched from the Taiyaun Space Center, China (TSC). Fengyun 1C debris stems from the Chinese weather satellite Fengyun-1C, which was intentionally destroyed by a Chinese anti-satellite missile in 2007. This event dramatically increased the amount of space debris, with thousands of trackable fragments posing hazards to satellites and human spaceflight. The Fengyun 1C debris cloud has become a focal point in discussions about space sustainability and the need for international regulations to prevent the creation of new debris.

Loading next visibility...
Identifier
35156, 1999-025DML
Orbit
SSO
Country
Flag of CNCN / PRC
Related business
Manufacturer
Unknown
Mission
Spacecraft
Bus & Motor
Unknown
Mass
Unknown
Launch date (UTC)
1999-05-10 (27 years ago)
Launch vehicle
Unknown
Launch site
Taiyaun Space Center, China (TSC)
Object type
Payload
Rocket body
Debris
Shape & HBR
Unknown shape, 0.1 m
Radar Cross Section
Small (<0.1 m²)

Expand to show TLE details & history
Last TLE update: 6 days ago

TLE from 6 days ago
0 FENGYUN 1C DEB
1 35156U 99025DML 26201.40818015  .00000226  00000-0  14938-3 0  9991
2 35156  98.7715 187.4214 0034250 247.2489 112.5062 14.10879246671414
Epoch: 2026-07-20T09:47Z
TLE epoch observation values (Epoch: 2026-07-20T09:47:46.764Z)
Latitude
Longitude
102.28389°
Altitude
868.823 km
Speed
7.413 km/s
True Right ascension
12h 29m 41s
True Declination
0° 00' 00"
Sunlit
Object was in daylight at epoch
Visualization orbit readout
Latitude
Unknown
Longitude
Unknown
Altitude
Unknown
Speed
Unknown
Apparent Right ascension
Unknown
Apparent Declination
Unknown
Sunlit
N/A
Visualization observer readout
Local Sidereal Time
23:22:08
Azimuth
Unknown
Elevation
Unknown
Doppler factor
Unknown
Orbital elements
Apogee altitude
878.307 km
Perigee altitude
828.77 km
Semi-major axis
7,231.675 km
Eccentricity
0.00343
Inclination
98.7715°
RAAN
187.4214°
Arg. of periapsis
247.2489°
True anomaly
112.86819°
Mean anomaly
112.5062°
Eccentric anomaly
112.68725°
Mean motion
3.52927 °/min
Orbital period
102 mins
BSTAR
0.00014938
Loading maneuver chart data...
Computing Atmospheric mass density...

Documentation

Showing up to 5 results
|